カタログに戻る

LCS 1

運用中科学MEO
NORAD 1361·PAYLOAD·🇺🇸 United States

打ち上げ May 6, 1965 から Cape Canaveral Space Force Station

Loading…

次のパス (今後24時間)

TLE

最新Source: Space-Track

元期: Sep 14, 2026, 12:53 UTC

1 01361U 65034C   26257.53708561  .00000017  00000-0  11195-2 0  9993
2 01361  32.1454 324.8830 0011205  78.9990 281.1767  9.89310720218733

AllMySatでLCS 1をリアルタイム追跡

Download on the App Store